| time (UTC) | temp C | wind direction | speed KPH | gust KPH | rain 1hr cm | rain 24hr cm | rain mn cm | humidity % | barometer mb |
| 20260507021036 | -17 | 45 | 0.0 | 0.0 | 0.00 | 0.00 | 0.00 | 1007.9 | |
| 20260507020236 | -17 | 45 | 0.0 | 0.0 | 0.00 | 0.00 | 0.00 | 1007.8 | |
| 20260507015436 | -17 | 45 | 0.0 | 0.0 | 0.00 | 0.00 | 0.00 | 1007.7 | |
| 20260507014635 | -17 | 45 | 0.0 | 0.0 | 0.00 | 0.00 | 0.00 | 1007.6 | |
| 20260507013832 | -17 | 45 | 0.0 | 0.0 | 0.00 | 0.00 | 0.00 | 1007.5 | |
| 20260507013028 | -17 | 45 | 0.0 | 0.0 | 0.00 | 0.00 | 0.00 | 1007.6 | |
| 20260507012230 | -17 | 45 | 0.0 | 0.0 | 0.00 | 0.00 | 0.00 | 1007.6 | |
| 20260507011429 | -17 | 90 | 0.0 | 0.0 | 0.00 | 0.00 | 0.00 | 1007.4 | |
| 20260507010629 | -17 | 248 | 0.0 | 0.0 | 0.00 | 0.00 | 0.00 | 1007.3 | |
| 20260507005824 | -17 | 45 | 0.0 | 0.0 | 0.00 | 0.00 | 0.00 | 1007.2 | |
| 20260507005024 | -17 | 248 | 0.0 | 0.0 | 0.00 | 0.00 | 0.00 | 1007.2 | |
| 20260507004223 | -17 | 248 | 0.0 | 0.0 | 0.00 | 0.00 | 0.00 | 1007.2 | |
| 20260507003423 | -17 | 45 | 0.0 | 0.0 | 0.00 | 0.00 | 0.00 | 1007.2 | |
| 20260507002623 | -17 | 45 | 0.0 | 0.0 | 0.00 | 0.00 | 0.00 | 1007.0 | |
| 20260507001823 | -17 | 45 | 0.0 | 0.0 | 0.00 | 0.00 | 0.00 | 1006.8 | |
| 20260507001022 | -17 | 45 | 0.0 | 0.0 | 0.00 | 0.00 | 0.00 | 1006.6 | |
| 20260507000221 | -17 | 45 | 0.0 | 0.0 | 0.00 | 0.00 | 0.00 | 1006.5 | |
| 20260506235420 | -17 | 45 | 0.0 | 0.0 | 0.00 | 0.03 | 0.00 | 1006.4 | |
| 20260506234620 | -17 | 45 | 0.0 | 0.0 | 0.00 | 0.03 | 0.00 | 1006.2 | |
| 20260506233817 | -17 | 45 | 0.0 | 0.0 | 0.00 | 0.03 | 0.00 | 1006.0 | |
| 20260506233017 | -17 | 45 | 0.0 | 0.0 | 0.00 | 0.03 | 0.00 | 1005.9 | |
| 20260506232216 | -17 | 45 | 0.0 | 0.0 | 0.00 | 0.03 | 0.00 | 1005.8 | |
| 20260506231417 | -17 | 45 | 0.0 | 0.0 | 0.00 | 0.03 | 0.00 | 1005.8 | |
| 20260506230616 | -17 | 45 | 0.0 | 0.0 | 0.00 | 0.03 | 0.00 | 1005.9 | |
| 20260506225815 | -17 | 45 | 0.0 | 0.0 | 0.00 | 0.03 | 0.00 | 1006.0 | |
| 20260506225014 | -17 | 45 | 0.0 | 0.0 | 0.00 | 0.03 | 0.00 | 1005.7 | |
| 20260506224215 | -17 | 45 | 0.0 | 0.0 | 0.00 | 0.03 | 0.00 | 1005.8 | |
| 20260506223414 | -17 | 45 | 0.0 | 0.0 | 0.00 | 0.03 | 0.00 | 1005.7 | |
| 20260506222613 | -17 | 45 | 0.0 | 0.0 | 0.00 | 0.03 | 0.00 | 1005.9 | |
| 20260506221814 | -17 | 45 | 0.0 | 1.6 | 0.00 | 0.03 | 0.00 | 1005.7 | |
| 20260506221013 | -17 | 45 | 0.0 | 0.0 | 0.00 | 0.03 | 0.00 | 1005.7 | |
| 20260506220207 | -17 | 180 | 0.0 | 0.0 | 0.00 | 0.03 | 0.00 | 1005.2 | |
| 20260506215407 | -17 | 180 | 0.0 | 1.6 | 0.00 | 0.03 | 0.03 | 1004.9 | |
| 20260506214606 | -17 | 180 | 0.0 | 0.0 | 0.00 | 0.03 | 0.03 | 1004.3 | |
| 20260506213806 | -17 | 248 | 0.0 | 0.0 | 0.00 | 0.03 | 0.03 | 1004.2 | |
| 20260506213006 | -17 | 180 | 0.0 | 0.0 | 0.00 | 0.03 | 0.03 | 1004.1 | |
| 20260506212202 | -17 | 135 | 0.0 | 0.0 | 0.00 | 0.03 | 0.03 | 1004.0 | |
| 20260506211402 | -17 | 135 | 0.0 | 0.0 | 0.00 | 0.03 | 0.03 | 1004.0 | |
| 20260506210600 | -17 | 180 | 0.0 | 0.0 | 0.00 | 0.03 | 0.03 | 1004.0 | |
| 20260506205759 | -17 | 180 | 0.0 | 0.0 | 0.00 | 0.03 | 0.03 | 1004.1 | |
| 20260506204956 | -17 | 180 | 0.0 | 0.0 | 0.00 | 0.03 | 0.03 | 1004.2 | |
| 20260506204153 | -17 | 180 | 0.0 | 0.0 | 0.00 | 0.03 | 0.03 | 1004.2 | |
| 20260506203346 | -17 | 135 | 0.0 | 0.0 | 0.00 | 0.03 | 0.03 | 1004.3 | |
| 20260506202542 | -17 | 135 | 0.0 | 0.0 | 0.00 | 0.03 | 0.03 | 1004.2 | |
| 20260506201741 | -17 | 180 | 0.0 | 0.0 | 0.00 | 0.03 | 0.03 | 1004.3 | |
| 20260506200935 | -17 | 180 | 0.0 | 0.0 | 0.00 | 0.03 | 0.03 | 1004.4 | |
| 20260506200125 | -17 | 90 | 0.0 | 0.0 | 0.00 | 0.03 | 0.03 | 1004.5 | |
| 20260506195315 | -17 | 45 | 0.0 | 0.0 | 0.00 | 0.03 | 0.03 | 1004.5 | |
| 20260506194508 | -17 | 45 | 0.0 | 0.0 | 0.00 | 0.03 | 0.03 | 1004.4 | |
| 20260506193706 | -17 | 45 | 0.0 | 0.0 | 0.00 | 0.03 | 0.03 | 1004.3 | |
| 20260506192905 | -17 | 45 | 0.0 | 0.0 | 0.00 | 0.03 | 0.03 | 1004.4 | |
| 20260506192105 | -17 | 45 | 0.0 | 0.0 | 0.00 | 0.03 | 0.03 | 1004.2 | |
| 20260506191303 | -17 | 45 | 0.0 | 0.0 | 0.00 | 0.03 | 0.03 | 1004.3 | |
| 20260506190500 | -17 | 45 | 0.0 | 0.0 | 0.00 | 0.03 | 0.03 | 1004.2 | |
| 20260506185700 | -17 | 45 | 0.0 | 0.0 | 0.00 | 0.03 | 0.03 | 1004.1 | |
| 20260506184900 | -17 | 45 | 0.0 | 0.0 | 0.00 | 0.03 | 0.03 | 1004.2 | |
| 20260506184100 | -17 | 45 | 0.0 | 0.0 | 0.00 | 0.03 | 0.03 | 1004.1 | |
| 20260506183256 | -17 | 45 | 0.0 | 0.0 | 0.00 | 0.03 | 0.03 | 1003.7 | |
| 20260506182456 | -17 | 135 | 0.0 | 0.0 | 0.00 | 0.03 | 0.03 | 1003.5 | |
| 20260506181654 | -17 | 45 | 0.0 | 0.0 | 0.00 | 0.03 | 0.03 | 1003.1 | |
| 20260506180850 | -17 | 45 | 0.0 | 0.0 | 0.00 | 0.03 | 0.03 | 1002.5 | |
| 20260506180048 | -17 | 180 | 0.0 | 0.0 | 0.00 | 0.03 | 0.03 | 1002.3 | |
| 20260506175244 | -17 | 113 | 0.0 | 0.0 | 0.00 | 0.03 | 0.03 | 1002.1 | |
| 20260506174445 | -17 | 180 | 0.0 | 0.0 | 0.00 | 0.03 | 0.03 | 1002.0 | |
| 20260506173644 | -17 | 158 | 0.0 | 0.0 | 0.00 | 0.03 | 0.03 | 1001.8 | |
| 20260506172842 | -17 | 135 | 0.0 | 0.0 | 0.00 | 0.03 | 0.03 | 1001.9 | |
| 20260506172039 | -17 | 135 | 0.0 | 0.0 | 0.00 | 0.03 | 0.03 | 1001.9 | |
| 20260506171236 | -17 | 180 | 0.0 | 0.0 | 0.00 | 0.03 | 0.03 | 1001.8 | |
| 20260506170435 | -17 | 180 | 0.0 | 0.0 | 0.00 | 0.03 | 0.03 | 1001.7 | |
| 20260506165635 | -17 | 180 | 0.0 | 0.0 | 0.00 | 0.03 | 0.03 | 1001.5 | |
| 20260506164834 | -17 | 135 | 0.0 | 0.0 | 0.00 | 0.03 | 0.03 | 1001.6 | |
| 20260506164034 | -17 | 45 | 0.0 | 0.0 | 0.00 | 0.03 | 0.03 | 1001.8 | |
| 20260506163230 | -17 | 135 | 0.0 | 0.0 | 0.00 | 0.03 | 0.03 | 1001.8 | |
| 20260506162430 | -17 | 135 | 0.0 | 0.0 | 0.00 | 0.03 | 0.03 | 1002.0 | |
| 20260506161627 | -17 | 180 | 0.0 | 0.0 | 0.00 | 0.03 | 0.03 | 1002.2 | |
| 20260506160821 | -17 | 180 | 0.0 | 0.0 | 0.00 | 0.03 | 0.03 | 1002.1 | |
| 20260506160012 | -17 | 180 | 0.0 | 0.0 | 0.00 | 0.03 | 0.03 | 1002.1 | |
| 20260506155202 | -17 | 203 | 0.0 | 0.0 | 0.00 | 0.03 | 0.03 | 1002.2 | |
| 20260506154401 | -17 | 203 | 0.0 | 0.0 | 0.00 | 0.03 | 0.03 | 1002.5 | |
| 20260506153601 | -17 | 180 | 0.0 | 0.0 | 0.00 | 0.03 | 0.03 | 1002.4 | |
| 20260506152759 | -17 | 158 | 0.0 | 0.0 | 0.00 | 0.03 | 0.03 | 1002.5 | |
| 20260506151958 | -17 | 180 | 0.0 | 0.0 | 0.00 | 0.03 | 0.03 | 1002.5 | |
| 20260506151158 | -17 | 135 | 0.0 | 0.0 | 0.00 | 0.03 | 0.03 | 1002.3 | |
| 20260506150356 | -17 | 180 | 0.0 | 0.0 | 0.00 | 0.03 | 0.03 | 1001.8 | |
| 20260506145555 | -17 | 180 | 0.0 | 0.0 | 0.00 | 0.03 | 0.03 | 1001.9 | |
| 20260506144750 | -17 | 180 | 0.0 | 0.0 | 0.00 | 0.03 | 0.03 | 1002.4 | |
| 20260506143943 | -17 | 135 | 0.0 | 0.0 | 0.00 | 0.03 | 0.03 | 1003.0 | |
| 20260506143140 | -17 | 180 | 0.0 | 0.0 | 0.00 | 0.03 | 0.03 | 1003.0 | |
| 20260506142337 | -17 | 135 | 0.0 | 0.0 | 0.00 | 0.03 | 0.03 | 1003.1 | |
| 20260506141537 | -17 | 180 | 0.0 | 0.0 | 0.00 | 0.03 | 0.03 | 1003.2 | |
| 20260506140737 | -17 | 135 | 0.0 | 0.0 | 0.00 | 0.03 | 0.03 | 1003.2 | |
| 20260506135937 | -17 | 203 | 0.0 | 0.0 | 0.00 | 0.03 | 0.03 | 1003.3 | |
| 20260506135136 | -17 | 180 | 0.0 | 0.0 | 0.00 | 0.03 | 0.03 | 1003.3 | |
| 20260506134336 | -17 | 180 | 0.0 | 0.0 | 0.00 | 0.03 | 0.03 | 1003.3 | |
| 20260506133537 | -17 | 90 | 0.0 | 0.0 | 0.00 | 0.03 | 0.03 | 1003.2 | |
| 20260506132734 | -17 | 135 | 0.0 | 0.0 | 0.00 | 0.03 | 0.03 | 1003.6 | |
| 20260506131933 | -17 | 180 | 0.0 | 0.0 | 0.00 | 0.03 | 0.03 | 1003.8 | |
| 20260506131134 | -17 | 135 | 0.0 | 0.0 | 0.00 | 0.03 | 0.03 | 1004.0 | |
| 20260506130334 | -17 | 180 | 0.0 | 0.0 | 0.00 | 0.03 | 0.03 | 1004.2 | |
| 20260506125535 | -17 | 203 | 0.0 | 0.0 | 0.00 | 0.03 | 0.03 | 1004.2 | |
| 20260506124733 | -17 | 135 | 0.0 | 0.0 | 0.00 | 0.03 | 0.03 | 1004.0 | |
| 20260506123931 | -17 | 180 | 0.0 | 0.0 | 0.00 | 0.03 | 0.03 | 1003.9 | |
| 20260506123132 | -17 | 135 | 0.0 | 0.0 | 0.00 | 0.03 | 0.03 | 1004.3 | |
| 20260506122331 | -17 | 135 | 0.0 | 0.0 | 0.00 | 0.03 | 0.03 | 1004.3 | |
| 20260506121531 | -17 | 180 | 0.0 | 0.0 | 0.00 | 0.03 | 0.03 | 1004.2 | |
| 20260506120731 | -17 | 180 | 0.0 | 0.0 | 0.00 | 0.03 | 0.03 | 1004.2 | |
| 20260506115930 | -17 | 135 | 0.0 | 0.0 | 0.00 | 0.03 | 0.03 | 1004.1 | |
| 20260506115130 | -17 | 180 | 0.0 | 0.0 | 0.00 | 0.03 | 0.03 | 1004.2 | |
| 20260506114327 | -17 | 135 | 0.0 | 0.0 | 0.00 | 0.03 | 0.03 | 1004.0 | |
| 20260506113526 | -17 | 135 | 0.0 | 0.0 | 0.00 | 0.03 | 0.03 | 1004.3 | |
| 20260506112724 | -17 | 135 | 0.0 | 0.0 | 0.00 | 0.03 | 0.03 | 1004.5 | |
| 20260506111923 | -17 | 248 | 0.0 | 0.0 | 0.00 | 0.03 | 0.03 | 1004.7 | |
| 20260506111124 | -17 | 180 | 0.0 | 0.0 | 0.00 | 0.03 | 0.03 | 1004.5 | |
| 20260506110325 | -17 | 180 | 0.0 | 0.0 | 0.00 | 0.03 | 0.03 | 1004.6 | |
| 20260506105525 | -17 | 248 | 0.0 | 0.0 | 0.00 | 0.03 | 0.03 | 1004.9 | |
| 20260506104724 | -17 | 180 | 0.0 | 0.0 | 0.00 | 0.03 | 0.03 | 1005.0 | |
| 20260506103920 | -17 | 180 | 0.0 | 0.0 | 0.00 | 0.03 | 0.03 | 1004.8 | |
| 20260506103120 | -17 | 248 | 0.0 | 0.0 | 0.00 | 0.03 | 0.03 | 1004.7 | |
| 20260506102320 | -17 | 180 | 0.0 | 0.0 | 0.00 | 0.03 | 0.03 | 1005.0 | |
| 20260506101521 | -17 | 248 | 0.0 | 0.0 | 0.00 | 0.03 | 0.03 | 1005.0 | |
| 20260506100720 | -17 | 135 | 0.0 | 0.0 | 0.00 | 0.03 | 0.03 | 1005.1 | |
| 20260506095921 | -17 | 180 | 0.0 | 0.0 | 0.00 | 0.03 | 0.03 | 1005.2 | |
| 20260506095123 | -17 | 203 | 0.0 | 0.0 | 0.00 | 0.03 | 0.03 | 1005.2 | |
| 20260506094320 | -17 | 180 | 0.0 | 0.0 | 0.00 | 0.03 | 0.03 | 1005.6 | |
| 20260506093521 | -17 | 203 | 0.0 | 0.0 | 0.00 | 0.03 | 0.03 | 1005.5 | |
| 20260506092719 | -17 | 180 | 0.0 | 0.0 | 0.00 | 0.03 | 0.03 | 1005.7 | |
| 20260506091918 | -17 | 203 | 0.0 | 0.0 | 0.00 | 0.03 | 0.03 | 1005.4 | |
| 20260506091121 | -17 | 180 | 0.0 | 8.0 | 0.00 | 0.03 | 0.03 | 1005.6 | |
| 20260506090320 | -17 | 180 | 0.0 | 0.0 | 0.00 | 0.03 | 0.03 | 1005.5 | |
| 20260506085519 | -17 | 180 | 0.0 | 0.0 | 0.00 | 0.03 | 0.03 | 1005.8 | |
| 20260506084718 | -17 | 180 | 0.0 | 0.0 | 0.00 | 0.03 | 0.03 | 1005.7 | |
| 20260506083916 | -17 | 180 | 0.0 | 0.0 | 0.00 | 0.03 | 0.03 | 1005.8 | |
| 20260506083114 | -17 | 180 | 0.0 | 0.0 | 0.00 | 0.03 | 0.03 | 1006.0 | |
| 20260506082315 | -17 | 248 | 0.0 | 0.0 | 0.00 | 0.03 | 0.03 | 1005.8 | |
| 20260506081514 | -17 | 135 | 0.0 | 0.0 | 0.00 | 0.03 | 0.03 | 1005.8 | |
| 20260506080714 | -17 | 180 | 0.0 | 0.0 | 0.00 | 0.03 | 0.03 | 1005.7 | |
| 20260506073508 | -17 | 180 | 0.0 | 0.0 | 0.00 | 0.03 | 0.03 | 1006.2 | |
| 20260506072705 | -17 | 248 | 0.0 | 0.0 | 0.00 | 0.03 | 0.03 | 1006.2 | |
| 20260506071906 | -17 | 248 | 0.0 | 0.0 | 0.00 | 0.03 | 0.03 | 1006.2 | |
| 20260506071106 | -17 | 248 | 0.0 | 0.0 | 0.00 | 0.03 | 0.03 | 1006.2 | |
| 20260506070306 | -17 | 248 | 0.0 | 0.0 | 0.00 | 0.03 | 0.03 | 1006.4 | |
| 20260506062305 | -17 | 203 | 0.0 | 0.0 | 0.00 | 0.03 | 0.03 | 1006.3 | |
| 20260506061502 | -17 | 203 | 0.0 | 0.0 | 0.00 | 0.03 | 0.03 | 1006.2 | |
| 20260506060704 | -17 | 248 | 0.0 | 0.0 | 0.00 | 0.03 | 0.03 | 1006.5 | |
| 20260506051103 | -17 | 248 | 0.0 | 0.0 | 0.00 | 0.03 | 0.03 | 1006.4 | |
| 20260506050304 | -17 | 180 | 0.0 | 0.0 | 0.00 | 0.03 | 0.03 | 1006.4 | |
| 20260506044703 | -17 | 180 | 0.0 | 0.0 | 0.00 | 0.03 | 0.03 | 1006.7 | |
| 20260506043901 | -17 | 180 | 0.0 | 0.0 | 0.00 | 0.03 | 0.03 | 1007.0 | |
| 20260506043059 | -17 | 135 | 0.0 | 0.0 | 0.00 | 0.03 | 0.03 | 1007.1 | |
| 20260506042300 | -17 | 135 | 0.0 | 0.0 | 0.00 | 0.03 | 0.03 | 1007.1 | |
| 20260506041458 | -17 | 135 | 0.0 | 0.0 | 0.00 | 0.03 | 0.03 | 1007.1 | |
| 20260506040658 | -17 | 135 | 0.0 | 0.0 | 0.00 | 0.03 | 0.03 | 1007.1 | |
| 20260506035859 | -17 | 135 | 0.0 | 0.0 | 0.00 | 0.03 | 0.03 | 1006.9 | |
| 20260506035059 | -17 | 180 | 0.0 | 0.0 | 0.00 | 0.03 | 0.03 | 1006.8 | |
| 20260506034257 | -17 | 180 | 0.0 | 0.0 | 0.00 | 0.03 | 0.03 | 1006.7 | |
| 20260506033457 | -17 | 180 | 0.0 | 0.0 | 0.00 | 0.03 | 0.03 | 1006.6 | |
| 20260506032658 | -17 | 180 | 0.0 | 0.0 | 0.00 | 0.03 | 0.03 | 1006.5 | |
| 20260506031859 | -17 | 180 | 0.0 | 0.0 | 0.00 | 0.03 | 0.03 | 1006.6 | |
| 20260506031058 | -17 | 180 | 0.0 | 0.0 | 0.00 | 0.03 | 0.03 | 1006.6 | |
| 20260506030300 | -17 | 180 | 0.0 | 0.0 | 0.00 | 0.03 | 0.03 | 1006.8 | |
| 20260506025501 | -17 | 45 | 0.0 | 0.0 | 0.00 | 0.03 | 0.03 | 1006.7 | |
| 20260506024701 | -17 | 180 | 0.0 | 0.0 | 0.00 | 0.03 | 0.03 | 1006.6 | |
| 20260506023901 | -17 | 45 | 0.0 | 0.0 | 0.00 | 0.03 | 0.03 | 1006.4 | |
| 20260506023102 | -17 | 45 | 0.0 | 0.0 | 0.00 | 0.03 | 0.03 | 1006.3 | |
| 20260506022300 | -17 | 45 | 0.0 | 0.0 | 0.00 | 0.03 | 0.03 | 1006.2 |